Location: New Mesquite
(33.1168°N, 96.4336°W)
Time: 19:01:19
(UTC+00:00)

Cosmos 1538 Rocket - Pass Details

Date: 05 July 2022
Orbit: 752 x 791 km, 74.0° (Epoch: 07 August)

Event Time Altitude Azimuth Distance (km) Brightness Sun altitude
Exits shadow 10:29:16 - 188° (S) 3,012 6.7 -10.3°
Reaches altitude 10° 10:31:06 10° 187° (S) 2,303 6.1 -9.9°
Maximum altitude 10:36:17 69° 104° (ESE) 818 4.3 -9.1°
Drops below altitude 10° 10:41:27 10° 22° (NNE) 2,293 7.4 -8.2°
Sets 10:43:49 0° 20° (NNE) 3,217 8.2 -7.8°
